Location: *
(40.9167°N, 9.5000°E)
Time: 08:02:08
(UTC+00:00)

SL-08 R/B - Pass Details

Date: 09 April 2020
Orbit: 951 x 1017 km, 82.9° (Epoch: 03 June)

Event Time Altitude Azimuth Distance (km) Brightness Sun altitude
Rises 20:27:43 0° 353° (N) 3,643 8.2 -26.6°
Reaches altitude 10° 20:30:13 10° 355° (N) 2,698 7.4 -27.0°
Maximum altitude 20:36:25 80° 83° (E) 985 4.3 -27.9°
Enters shadow 20:36:44 77° 123° (ESE) 995 4.3 -27.9°
